Regional Weather Roundup
Issued by NWS Mobile, AL

Home | Current Version | Previous Version | Text Only | Print | Product List | Glossary Off
Versions: 1 2 3 4 5 6 7 8 9 10 11 12 13 14 15 16 17 18 19 20 21 22 23 24 25 26 27 28 29 30 31 32 33 34 35 36 37 38 39 40 41 42 43 44 45 46 47 48 49 50

000
ASUS44 KMOB 300210
RWRMOB
REGIONAL WEATHER ROUNDUP
NATIONAL WEATHER SERVICE MOBILE AL
800 PM CST THU JAN 29 2015

NOTE: "FAIR" INDICATES FEW OR NO CLOUDS BELOW 12,000 FEET WITH NO
      SIGNIFICANT WEATHER AND/OR OBSTRUCTIONS TO VISIBILITY.

  * THESE STATIONS ARE PART OF THE UNIVERSITY OF SOUTH ALABAMA
    MESONET AND ARE NOT UNDER NWS OR FAA QUALITY CONTROL.

ALZ061>064-300300-
COASTAL ALABAMA

CITY           SKY/WX    TMP DP  RH WIND       PRES   REMARKS
MOBILE REG APT MOCLDY    57  54  89 S9        30.20S
BROOKLEY FIELD MOCLDY    58  55  90 S5        30.21S
USA CAMPUS*    NOT AVBL
DOG RIVER*     NOT AVBL


CITY           SKY/WX    TMP DP  RH WIND       PRES   REMARKS
MOUNT VERNON*  NOT AVBL
SARALAND*      NOT AVBL
BAY MINETTE*   NOT AVBL
LOXLEY*        NOT AVBL
ROBERTSDALE*   NOT AVBL
FAIRHOPE*        N/A     61  57  88 SW8       30.20R
ELBERTA*         N/A     59  57  94 S3        30.20R
FOLEY*         NOT AVBL
GRAND BAY*     NOT AVBL
DAUPHIN ISLND* NOT AVBL
BON SCOUR NWR* NOT AVBL
GULF SHORES    CLEAR     62  58  86 SW7       30.21R

$$

ALZ051>060-300300-
INTERIOR SOUTHWEST AND SOUTH CENTRAL ALABAMA

CITY           SKY/WX    TMP DP  RH WIND       PRES   REMARKS
GREENVILLE     PTCLDY    60  50  69 SW8       30.16R
EVERGREEN      PTCLDY    59  52  77 S8        30.18R
CASTLEBERRY*   NOT AVBL
ATMORE*          N/A     57  54  88 S8        30.20S
DIXIE*           N/A     59  54  82 S3        30.16S
ANDALUSIA/OPP  MOCLDY    61  50  67 SW3       30.18S
ANDALUSIA*       N/A     59  52  77 SW9       30.18R
FLORALA APT    MOCLDY    57  52  83 SW5       30.21S
FLORALA*         N/A     55  52  88 CALM      30.17R

$$

FLZ001>006-300300-
WESTERN FLORIDA PANHANDLE

CITY           SKY/WX    TMP DP  RH WIND       PRES   REMARKS
PENSACOLA      PTCLDY    60  55  83 SW8       30.21R
NAS PENSACOLA  MOCLDY    61  57  87 SW9       30.21R
MILTON         MOCLDY    55  52  89 SW6       30.20R
WHTNG S FIELD  MOCLDY    60  55  83 SW5       30.21R


CITY           SKY/WX    TMP DP  RH WIND       PRES   REMARKS
WALNUT HILL*   NOT AVBL
JAY*           NOT AVBL
DUKE FIELD     PTCLDY    56  54  92 SW6       30.20R
CRESTVIEW      PTCLDY    50  49  96 CALM      30.22R FOG
VALPARAISO     MOCLDY    61  56  83 S6        30.20S
DESTIN         PTCLDY    64  56  75 SW7       30.21R

$$

MSZ076-079-300300-
INTERIOR SOUTHEAST MISSISSIPPI

CITY           SKY/WX    TMP DP  RH WIND       PRES   REMARKS
LEAKESVILLE*   NOT AVBL
AGRICOLA*      NOT AVBL

$$

MARINE OBSERVATIONS

STATION/POSITION TIME  TEMP    WIND        PRES    WAVE
                       AIR SEA DIR/SP/G            HT/PER
                 (UTC) (F)     (DEG/KT/KT) (MB)    (FT/S)
PASCAGOULA       0200   62     210/  8/ 11 1022.7R
PETIT BOIS ISLND 0200   64     210/ 10/ 12 1023.2R
GRAND BAY        0100   60     200/  8     1023.0S
KATRINA CUT      0100   61     220/ 10     1023.7R
CEDAR POINT      0100   60     220/ 10     1022.7S
E DAUPHIN ISLAND 0100   61     190/  5/  8 1022.3R
MIDDLE BAY LIGHT 0100   57     180/  6     1022.4R
USCG MOBILE BAY  0200   58 54  170/  2/  3 1021.6S
STATE DOCKS      0200   61 50              1022.2F
MEAHER PARK      0100   58     190/  6     1023.0R
WEEKS BAY        0100   60                   N/A
FORT MORGAN      0200   63     230/ 13/ 14 1022.4R
12 S ORANGE BCH  0200   65 63  200/ 12/ 14 1022.1S   2/ 5
PENSACOLA BAY    0200   62 57  240/  2/  4 1023.2R
64 S DAUPHIN ISL 0120   68 69  210/ 12/ 14 1023.8R   2/ 5

$$

SELECTED LOCATIONS ACROSS THE REGION

CITY           SKY/WX    TMP DP  RH WIND       PRES   REMARKS
NEW ORLEANS    PTCLDY    65  55  70 SW9       30.22R
GULFPORT       CLEAR     61  55  81 SW6       30.20R
PASCAGOULA AP  PTCLDY    60  55  83 SW5       30.21R
PASCAGOULA*    NOT AVBL
HATTIESBURG    PTCLDY    65  55  70 W5        30.19R
LAUREL         PTCLDY    57  48  72 W3        30.20R
MERIDIAN       PTCLDY    61  48  62 NW9       30.19R
JACKSON        PTCLDY    63  51  65 N9        30.21R
MONTGOMERY     MOCLDY    62  49  62 S7        30.14R
TROY           PTCLDY    58  50  75 SW8       30.18R
KINSTON*       NOT AVBL
GENEVA*        NOT AVBL
ASHFORD*         N/A     59  52  77 SW9       30.18R
DOTHAN         PTCLDY    56  50  80 SW10      30.21S
PANAMA CITY    PTCLDY    56  52  86 SE8       30.20F

$$



USA.gov is the U.S. government's official web portal to all federal, state and local government web resources and services.